Weather Service Report


856 
ASUS46 KSTO 232015
RWRCA 

NORTHERN AND CENTRAL CA REGIONAL WEATHER ROUNDUP
NATIONAL WEATHER SERVICE SACRAMENTO CA 
1200 PM PST SUN FEB 23 2020

NOTE: FAIR INDICATES FEW OR NO CLOUDS BELOW 12,000 FEET WITH NO
SIGNIFICANT WEATHER AND/OR OBSTRUCTIONS TO VISIBILITY.

CAZ001-003-232100-
NORTHWEST AREA
  
CITY           SKY/WX    TMP DP  RH WIND       PRES   REMARKS
CRESCENT CITY  CLOUDY    50  45  83 S16       30.42S                  
UKIAH          SUNNY     63  39  41 N13       30.35S                  
$$

CAZ006-505>513-232100-
BAY AREA
  
CITY           SKY/WX    TMP DP  RH WIND       PRES   REMARKS
SANTA ROSA     MOSUNNY   58  43  57 VRB3      30.35S                  
SAN RAFAEL     N/A       MM  MM  MM MISG
NAPA           SUNNY     58  47  66 S5        30.35F                  
CONCORD        SUNNY     62  43  49 VRB5      30.35S                  
OAKLAND CITY   N/A       57  MM  MM MISG
OAKLAND        MOSUNNY   60  47  61 SW12      30.37F                  
SAN FRAN CITY  N/A       54  MM  70 MISG
SAN FRAN ARPT  PTSUNNY   55  45  68 W21G28    30.37S                  
LIVERMORE      MOSUNNY   55  45  68 W10       30.36F                  
HAYWARD        PTSUNNY   56  45  66 W12       30.38S                  
SAN JOSE ARPT  PTSUNNY   60  45  57 N7        30.39S                  
$$
CAZ034-037-514>518-232100-
CENTRAL COAST
  
CITY           SKY/WX    TMP DP  RH WIND       PRES   REMARKS
WATSONVILLE    PTSUNNY   58  47  66 W5        30.38S                  
SALINAS        CLOUDY    55  45  68 W13       30.39S                  
MONTEREY       PTSUNNY   55  47  74 NW10      30.41R                  
SAN LUIS OBISP SUNNY     62  44  51 W8        30.32F                  
SANTA MARIA    MOSUNNY   61  46  57 NW6       30.34F                  
$$
CAZ015-016-232100-
NORTHERN SACRAMENTO VALLEY
  
CITY           SKY/WX    TMP DP  RH WIND       PRES   REMARKS
REDDING        PTSUNNY   57  45  64 S9        30.34R                  
RED BLUFF      CLOUDY    53  46  77 SW7       30.36S                  
OROVILLE       SUNNY     61  45  55 SE9       30.36F                  
$$
CAZ016>018-232100-
SOUTHERN SACRAMENTO VALLEY
  
CITY           SKY/WX    TMP DP  RH WIND       PRES   REMARKS
AUBURN         SUNNY     57  45  62 SW3       30.34S                  
BEALE AFB      SUNNY     60  47  61 S9        30.34S                  
LINCOLN        FAIR      59  45  58 CALM      30.34F                  
MARYSVILLE     MOSUNNY   57  46  66 S8        30.36S                  
SAC INTL ARPT  MOSUNNY   55  46  71 S7        30.35F                  
MATHER AIRPORT MOSUNNY   57  46  67 SW5G12    30.35S                  
DOWNTOWN SAC   N/A       59  MM  MM MISG
SAC EXEC ARPT  MOSUNNY   58  47  66 SW5       30.36S                  
VACAVILLE      SUNNY     56  46  69 VRB3      30.36F                  
TRAVIS AFB     SUNNY     62  47  56 CALM      30.35F                  
$$
CAZ019>021-232100-
SAN JOAQUIN VALLEY
  
CITY           SKY/WX    TMP DP  RH WIND       PRES   REMARKS
STOCKTON       SUNNY     62  46  55 W10       30.35S                  
MODESTO        SUNNY     60  44  55 VRB5      30.34S                  
MERCED         SUNNY     60  45  57 CALM      30.34S                  
LEMOORE        MOSUNNY   62  48  60 NE9       30.34S                  
FRESNO         MOSUNNY   63  45  51 E3        30.33F                  
HANFORD        PTSUNNY   52  47  83 E8        30.35F                  
BAKERSFIELD    MOSUNNY   65  44  46 NW8       30.31S                  
$$
CAZ011-012-071-232100-
NORTHERN MOUNTAINS
  
CITY           SKY/WX    TMP DP  RH WIND       PRES   REMARKS
YREKA          SUNNY     56  35  45 W6        30.29F                  
ALTURAS        MOSUNNY   50  31  48 W7G17     30.25F                  
$$
CAZ011-012-071-232100-
SIERRA NEVADA MTNS
  
CITY           SKY/WX    TMP DP  RH WIND       PRES   REMARKS
BLUE CANYON    MOSUNNY   47  30  51 S6        30.35R                  
TRUCKEE        SUNNY     54  23  30 W9G17     30.31R                  
TAHOE VLY ARPT SUNNY     51  19  28 SW7       30.30S                  
MAMMOTH LAKES  FAIR      54  10  17 CALM      30.29F                  
$$
  

Return to Home page


Western Regional Climate Center, wrcc@dri.edu